Dewpoint
31 26 24 23 23 23 23 24 25 26 27 29 43 52 54 53 53 56 60 62 63 61 60 59 59 61 60 60 65 68 64 64 63 62 63 51 50 49 50 50 50 51 51 53 53 55 58 60 63 64 64 64 65 66 66 67 68 69 69 70 69 70 71 72 71 70 70 69 70 71 71 71 71 71 72 72 72 72 73 75 75 76 76 76 76 76
30 28 25 23 23 22 22 25 25 25 27 30 35 49 52 51 52 55 59 61 62 60 58 60 59 61 62 63 66 66 64 63 62 63 63 62 51 50 50 50 50 52 52 52 52 55 58 61 62 62 63 66 65 66 66 67 67 69 69 69 70 71 71 71 71 71 70 70 71 71 71 72 71 72 72 72 72 72 73 75 75 76 76 76 76 76
28 26 26 24 23 22 22 21 21 22 25 29 31 46 48 50 57 58 60 60 59 61 57 59 59 60 62 63 63 65 66 65 63 65 66 66 63 61 51 50 51 51 51 50 50 55 58 60 61 61 63 64 65 65 65 67 68 69 69 69 70 71 71 71 71 71 70 71 72 71 72 72 72 73 73 73 73 74 74 75 75 76 76 76 76 76
27 25 26 25 22 21 20 20 20 18 16 16 23 46 46 52 53 54 59 59 59 59 58 58 58 59 61 62 62 63 64 65 66 67 67 67 66 65 64 65 51 51 50 49 49 54 57 59 60 61 62 64 65 65 65 67 68 68 70 70 70 70 71 71 72 72 71 72 72 72 72 73 73 73 75 75 74 74 75 75 76 76 76 76 76 76
24 24 25 25 21 18 18 18 16 14 12 14 19 44 47 52 53 53 56 57 59 59 59 59 57 58 59 59 60 62 65 65 66 65 65 66 68 67 65 66 67 51 50 46 48 54 56 58 59 61 62 63 64 64 65 67 67 68 69 70 70 70 71 71 73 72 72 73 72 73 73 74 73 73 72 72 73 74 75 75 75 76 76 76 75 76
22 23 24 23 23 20 16 14 13 13 12 13 16 40 49 52 54 55 56 55 55 55 58 55 49 51 58 59 59 61 63 62 65 64 63 64 66 67 66 64 65 66 50 46 49 54 56 58 60 61 62 63 63 63 65 66 67 68 70 70 70 70 71 71 72 72 72 73 71 71 71 71 71 70 70 71 72 73 74 74 75 76 76 76 75 76
22 23 21 21 21 20 19 17 16 13 12 14 19 38 50 53 54 54 54 53 52 51 54 55 49 47 55 56 58 60 60 62 64 64 63 64 64 65 66 66 65 65 53 45 51 54 56 58 60 61 62 62 62 62 64 66 66 68 70 70 70 70 70 71 71 72 73 71 71 71 71 71 71 70 70 71 72 73 74 74 74 75 76 76 75 75
20 20 20 20 20 19 18 17 17 16 14 15 26 45 52 54 53 53 52 52 52 52 54 55 51 48 48 52 58 59 58 60 62 62 63 63 64 65 65 66 65 66 60 45 52 54 56 59 60 60 61 62 62 62 63 65 66 68 70 70 70 70 71 70 71 71 72 71 70 71 71 71 71 70 70 70 71 73 75 74 74 75 76 76 75 74
19 17 18 18 19 18 17 17 18 18 18 32 35 49 52 53 52 52 50 47 49 51 49 52 51 49 49 55 57 59 57 57 60 62 63 63 64 64 64 66 66 66 65 54 52 54 56 58 60 60 61 61 62 62 63 66 66 68 70 70 70 70 71 70 71 71 71 72 70 71 70 71 71 70 70 72 73 73 75 73 74 75 75 75 75 75
20 17 18 18 17 16 17 17 17 25 21 25 42 46 50 52 51 49 47 49 52 48 47 50 49 47 48 55 56 58 56 56 59 62 63 63 64 64 64 66 66 66 66 67 53 54 56 58 59 60 61 61 62 63 64 66 67 68 70 69 69 70 70 69 72 72 71 72 72 71 70 70 71 72 72 72 71 72 73 73 73 74 74 75 75 74
21 31 30 19 17 17 16 16 19 27 32 33 36 34 44 44 46 51 48 49 47 44 46 49 49 48 45 52 55 55 55 56 60 63 64 64 65 65 65 66 66 67 65 67 64 54 55 58 60 60 60 61 62 63 64 66 67 68 70 69 69 70 70 70 72 71 71 72 71 71 71 70 70 72 71 71 71 72 72 72 72 73 74 74 74 74
23 21 21 23 26 21 19 20 24 30 32 31 29 31 38 40 44 45 46 44 40 39 44 48 48 49 42 47 55 57 59 58 61 61 63 64 64 64 65 67 66 66 67 67 65 55 55 57 60 60 61 62 62 63 64 66 67 67 69 70 69 70 70 70 72 71 71 72 71 72 71 71 71 72 71 71 70 72 72 72 72 73 74 74 74 74
20 20 21 21 41 25 27 24 28 30 29 25 25 27 30 39 35 37 41 38 36 32 39 47 49 48 49 51 52 56 57 59 61 62 63 64 64 65 66 67 65 67 68 68 67 57 55 56 59 60 61 62 62 64 64 67 67 67 68 70 69 70 71 70 73 71 71 72 71 71 72 70 72 71 71 71 71 72 72 73 73 73 73 73 73 73
19 22 21 24 28 34 29 25 25 26 27 26 25 28 31 31 32 30 36 37 37 43 46 47 51 49 51 54 58 56 58 60 62 64 65 66 65 66 66 66 67 69 69 68 68 62 56 56 58 59 61 62 62 63 64 67 67 67 68 70 69 70 71 70 72 71 71 72 72 72 72 71 73 71 72 71 72 72 73 73 73 73 73 73 73 73
20 18 20 26 27 30 30 27 26 25 24 28 29 30 31 32 30 29 32 30 32 44 47 50 45 47 49 50 59 61 61 63 64 64 66 67 68 68 68 68 69 68 67 67 67 67 62 57 57 58 60 61 62 63 65 67 67 67 68 69 69 70 72 70 72 71 72 71 72 72 72 72 72 70 72 72 73 73 73 73 73 73 73 73 73 73
19 21 26 29 27 30 29 31 28 24 22 26 28 29 28 30 36 27 32 31 42 43 44 47 48 53 53 58 60 62 62 61 62 63 64 64 67 67 67 68 69 68 67 68 67 66 68 69 65 59 60 60 61 63 65 67 68 68 68 69 68 70 72 69 72 72 72 72 72 72 71 73 72 73 73 73 74 74 74 73 73 74 74 74 74 73
26 21 25 29 29 28 27 28 29 25 22 25 27 27 29 27 23 33 39 42 44 44 46 50 51 53 55 57 58 60 61 61 62 62 63 64 65 66 66 66 67 67 68 68 68 67 68 71 69 69 64 60 61 62 65 67 68 68 69 70 69 69 72 70 71 72 72 72 72 72 72 73 73 73 72 72 73 73 73 74 73 74 74 74 74 73
21 23 20 27 25 24 27 26 26 26 25 21 21 21 20 24 26 26 24 34 40 42 45 50 48 50 50 48 57 58 59 60 60 61 61 63 64 65 65 66 66 67 68 69 69 69 70 71 69 69 69 68 66 61 65 67 68 68 69 70 69 69 72 72 70 72 72 72 72 72 72 72 73 73 72 72 72 73 73 74 74 74 74 74 75 74
20 18 18 22 22 20 20 24 24 21 23 17 16 21 25 24 24 30 24 31 40 41 43 47 49 50 51 50 55 55 57 58 58 59 60 61 63 65 65 66 66 67 68 68 69 70 71 71 70 70 69 69 70 71 69 68 68 68 68 70 70 69 71 72 71 71 72 72 72 72 72 72 73 73 72 72 73 72 72 72 73 73 74 74 74 75
25 17 21 20 17 19 18 21 23 20 18 23 22 28 25 20 26 23 24 30 43 42 42 44 46 45 52 52 55 56 58 59 58 58 58 60 61 64 65 65 65 66 67 68 69 70 70 71 71 70 68 69 70 71 71 70 69 69 68 70 70 70 70 72 72 72 72 72 72 72 72 73 73 73 72 72 72 71 71 72 72 72 73 73 74 74
23 25 21 21 18 16 17 21 17 19 17 17 18 23 20 27 24 21 26 34 42 42 41 41 40 46 51 56 57 57 58 58 60 58 58 60 61 63 65 66 66 66 66 67 68 69 69 71 71 70 71 71 72 72 70 70 70 71 71 71 72 71 71 71 72 73 73 73 72 72 72 72 73 72 72 72 72 71 70 71 72 71 71 72 73 73
28 27 24 23 14 14 14 19 17 17 16 16 16 18 17 20 20 18 19 40 43 41 39 40 41 48 54 57 57 57 58 56 57 59 59 60 61 62 63 65 65 65 66 66 67 68 69 70 71 72 72 72 71 71 70 70 71 72 72 71 72 72 71 72 71 72 73 73 72 71 71 72 72 72 72 71 71 71 70 70 71 71 71 71 71 72
28 33 28 19 16 13 14 15 21 18 18 16 17 17 19 19 23 24 29 37 44 44 45 44 44 47 57 58 59 59 55 54 55 56 57 59 60 59 60 61 64 65 65 64 66 67 68 70 70 71 71 71 71 71 72 72 71 72 72 72 72 71 71 71 72 73 73 72 71 71 72 71 71 72 72 71 70 70 70 69 70 70 70 70 70 71
47 28 27 34 36 21 16 19 20 20 18 16 17 24 20 19 23 28 35 41 44 44 43 43 44 48 56 59 59 59 54 54 54 54 54 55 55 57 60 58 59 61 63 65 65 67 68 68 70 70 70 70 71 71 72 72 72 72 71 72 72 70 70 72 72 74 73 73 73 72 71 72 71 71 71 71 70 70 70 69 68 70 69 69 70 70
30 35 31 29 21 18 16 17 19 25 17 18 15 18 21 24 32 35 41 43 41 43 44 42 41 47 54 58 57 59 56 52 53 53 54 54 54 56 59 60 59 59 61 64 66 66 67 67 67 67 68 69 70 71 71 70 71 71 71 71 71 72 72 73 73 72 72 73 73 72 72 71 71 71 70 70 70 69 69 69 68 68 68 68 69 69
30 36 33 25 21 17 15 16 17 19 20 20 21 20 21 24 36 40 40 39 36 42 46 45 46 50 55 56 56 58 57 52 52 53 54 54 54 54 56 58 60 58 59 60 62 64 65 66 67 67 67 67 68 69 70 71 72 72 72 72 72 71 72 72 73 72 72 72 72 71 71 71 71 70 71 70 70 69 69 68 68 67 68 68 67 68
34 38 38 34 27 22 25 29 31 37 22 14 15 22 20 27 35 38 40 39 39 43 44 46 48 50 52 52 53 55 52 51 51 52 53 53 54 55 55 56 56 57 58 59 61 62 61 63 65 66 67 68 68 68 69 70 71 72 71 72 72 73 72 73 73 72 71 73 72 72 72 72 72 71 69 69 70 70 68 66 65 66 67 68 67 66
41 28 27 38 35 28 28 24 19 22 15 14 12 13 15 25 34 36 39 40 45 44 41 47 50 49 49 50 52 52 52 53 51 52 53 53 54 54 55 56 57 55 56 57 59 59 59 60 59 61 64 67 67 68 69 69 70 71 71 72 72 72 72 72 72 72 72 72 72 71 72 72 73 72 72 72 71 70 70 69 69 69 68 68 67 66
34 29 27 25 21 25 16 16 17 14 14 15 13 17 25 28 33 38 44 45 44 43 44 47 49 48 49 50 51 51 52 54 54 52 52 53 53 54 54 54 54 54 55 55 57 58 57 58 59 61 62 65 67 68 68 69 69 70 70 71 71 72 72 73 72 72 72 71 71 71 72 72 73 73 73 73 72 71 71 71 70 70 70 70 68 66
33 32 36 26 28 19 19 16 16 13 13 12 14 14 29 38 41 43 44 46 46 46 48 48 48 47 49 49 51 51 51 52 52 51 51 51 51 53 52 53 53 54 54 55 55 56 56 57 58 58 58 59 62 66 68 69 69 69 70 70 71 70 72 73 72 71 72 72 72 73 72 72 73 73 73 73 72 72 72 70 70 70 70 71 71 69
29 29 35 28 26 22 22 20 15 14 13 18 20 20 25 41 45 46 47 48 48 47 47 47 47 46 48 48 48 48 49 50 51 50 50 51 52 52 52 52 52 53 53 54 55 55 55 56 56 57 58 59 59 60 62 67 69 69 69 70 69 69 70 71 70 70 69 69 70 72 73 73 73 73 72 72 72 72 72 72 72 72 72 71 71 70
24 26 30 33 27 20 22 16 14 16 17 19 21 24 22 43 45 46 46 47 46 45 46 45 45 45 47 48 48 48 48 49 49 49 49 50 51 51 51 52 52 52 52 52 53 53 54 54 54 55 57 59 59 59 59 62 66 67 67 67 68 69 70 70 69 69 69 69 68 69 70 71 72 73 72 73 72 73 73 72 72 71 71 71 70 70
31 29 28 29 24 24 22 19 17 20 15 18 23 23 26 26 42 46 46 47 46 45 44 43 44 46 47 48 46 46 47 48 48 49 49 50 50 51 51 51 51 51 51 52 53 53 53 54 54 53 54 57 58 59 59 59 60 64 65 65 66 67 67 67 68 68 68 69 68 68 69 69 70 70 71 72 72 72 73 73 72 71 71 72 72 71
38 34 28 33 23 24 23 24 33 22 18 18 25 25 30 38 45 45 45 45 45 45 44 45 46 48 47 46 45 45 46 47 48 50 50 49 49 50 51 51 50 50 50 50 50 51 52 53 55 54 52 54 58 59 59 60 60 60 63 63 63 63 64 65 65 66 67 68 68 68 68 69 69 70 70 71 72 72 72 73 72 73 73 73 72 71
33 33 26 31 25 23 27 27 23 14 19 29 29 36 30 45 46 46 46 46 47 47 47 47 47 48 48 47 47 47 48 49 50 49 50 50 50 50 50 50 49 49 49 50 49 49 51 53 54 54 53 54 57 59 59 58 59 60 61 61 60 61 61 62 63 64 65 65 66 67 68 68 69 69 69 70 71 71 71 71 71 71 72 73 73 72
31 31 28 26 29 28 26 25 14 14 27 33 33 27 40 44 45 45 44 46 48 47 47 47 47 48 49 48 48 48 47 47 48 49 49 50 49 49 50 50 49 49 49 49 49 50 50 53 55 53 54 58 58 58 59 58 59 59 60 62 61 61 61 61 61 61 63 62 63 65 66 68 69 69 69 69 69 70 71 70 71 71 72 73 73 73
33 38 36 29 31 20 23 25 21 30 29 30 31 26 28 40 44 44 42 43 47 47 46 49 47 48 48 48 48 48 47 45 43 44 47 48 49 49 50 50 49 48 49 49 49 50 52 53 53 54 54 54 55 56 57 58 58 59 58 59 62 62 62 61 61 62 62 62 62 63 64 66 66 68 68 68 68 68 69 70 70 71 72 72 72 72
33 28 35 31 31 28 21 25 26 23 22 27 36 35 29 33 45 46 44 43 47 47 48 47 47 48 48 49 48 48 46 43 41 41 42 43 44 46 47 48 47 47 46 47 50 51 52 52 52 54 53 53 55 55 56 57 57 57 57 59 60 61 62 62 61 62 62 61 62 62 62 65 65 65 65 66 67 68 69 70 70 71 72 72 72 72
32 39 39 33 31 31 24 21 21 17 25 34 34 32 31 40 43 44 44 41 42 46 46 46 47 49 49 48 48 47 45 43 42 41 42 42 42 43 43 44 44 46 48 49 50 50 51 52 52 52 53 52 52 54 56 57 58 58 57 58 58 58 57 60 62 62 62 62 62 62 62 62 64 64 64 64 65 69 70 70 70 71 72 72 72 72
32 33 29 25 29 34 26 23 23 33 26 31 36 29 24 28 27 35 35 36 40 43 45 46 46 47 47 48 47 46 44 43 43 44 44 43 43 44 44 45 46 48 49 50 50 51 52 52 50 50 50 51 52 53 55 57 58 60 59 58 57 57 57 58 59 61 62 62 63 62 62 62 63 63 63 63 64 69 69 69 68 69 70 71 71 72
26 28 26 19 21 28 32 26 31 30 35 40 36 34 30 35 23 19 22 30 39 43 44 47 47 48 48 47 46 45 45 46 46 44 43 44 44 44 45 46 48 49 49 50 52 55 49 50 50 49 50 52 54 54 54 56 57 57 58 57 55 56 57 58 58 58 59 58 62 62 61 61 61 61 60 61 63 69 67 67 67 68 68 69 70 70
25 29 37 24 21 19 23 24 26 32 35 35 32 43 41 29 16 13 25 40 42 39 41 43 43 45 46 44 42 43 42 42 44 43 43 44 44 44 45 47 48 49 51 55 55 53 49 49 49 50 50 52 53 55 54 55 56 56 57 54 53 54 57 57 57 57 57 58 59 63 61 62 60 62 60 61 64 66 63 64 65 67 67 69 70 70
29 22 22 20 27 26 26 29 27 22 33 42 38 31 43 32 28 36 41 43 43 40 41 42 42 41 41 40 41 41 40 40 42 43 44 44 44 44 45 46 46 47 46 47 48 53 50 49 49 50 51 52 52 53 54 55 55 56 56 52 53 55 57 57 57 58 58 59 58 59 62 63 61 60 61 61 64 64 62 63 64 65 68 68 68 68
36 28 30 32 34 28 28 26 25 31 36 45 38 29 39 42 44 47 41 39 41 41 40 40 40 40 39 38 38 38 39 41 43 44 44 44 44 45 46 46 46 46 46 47 49 50 52 49 50 51 51 51 52 52 54 54 53 55 55 51 54 56 56 55 57 57 58 59 58 58 59 60 61 59 58 60 62 62 61 62 64 65 67 67 67 67
31 34 36 28 32 31 30 32 35 41 44 45 46 46 47 47 47 45 41 40 39 39 42 39 39 37 37 38 39 39 40 41 43 43 43 44 44 44 44 45 46 46 46 47 49 52 50 50 50 50 50 51 52 52 53 52 53 53 52 52 55 54 53 55 56 57 58 57 57 57 57 58 58 59 59 59 60 61 62 63 64 65 65 65 64 64
37 40 40 34 32 40 40 41 43 44 44 43 44 44 42 44 45 42 41 39 41 40 40 38 38 37 36 37 38 39 39 41 42 43 43 44 44 46 47 46 47 47 47 47 49 51 50 50 51 51 51 51 52 52 53 52 52 51 51 53 53 52 53 54 56 57 58 58 57 56 56 56 56 57 59 60 60 62 63 62 62 62 63 63 62 62
38 39 36 30 37 32 30 38 41 42 43 42 41 42 41 40 42 44 43 41 42 41 39 39 38 36 35 36 38 38 39 40 42 43 44 44 45 44 44 45 46 46 46 47 51 51 50 50 50 52 52 52 51 51 52 51 51 51 52 52 52 52 52 54 55 56 56 55 55 55 56 56 56 59 60 59 60 59 61 60 59 60 62 61 61 61
34 40 36 36 33 26 30 39 42 44 44 43 40 38 37 38 40 44 46 46 45 44 41 41 40 39 38 37 39 38 40 42 42 43 44 44 44 44 44 45 46 47 48 50 51 50 49 48 48 51 52 51 50 51 51 50 51 51 51 52 52 53 54 55 56 55 54 54 54 56 56 57 60 59 59 59 59 58 57 57 59 60 60 60 60 61
36 42 31 36 33 37 40 42 44 41 41 42 45 43 39 38 40 43 44 43 43 43 43 42 40 40 40 39 40 41 42 42 43 43 43 43 43 43 44 46 47 48 48 47 48 49 46 50 52 51 51 50 50 50 50 50 51 51 51 51 52 54 54 55 56 56 54 53 54 54 57 58 58 58 58 57 58 58 57 58 60 60 59 58 60 61
37 34 38 34 32 32 37 39 43 35 35 39 43 46 47 45 40 42 43 42 42 41 41 41 41 41 39 40 40 41 42 43 44 44 43 43 43 43 45 47 47 47 46 47 50 48 52 53 51 51 51 49 49 50 51 51 51 50 50 51 53 53 53 54 55 55 54 55 55 55 55 56 56 55 56 56 56 55 57 64 57 56 57 57 60 58
34 37 38 35 32 34 41 44 44 42 41 42 45 46 47 47 43 42 42 42 42 41 41 40 40 40 41 42 41 42 42 43 43 44 44 45 44 44 45 46 45 45 45 47 47 49 49 50 52 51 50 49 51 50 51 51 49 49 50 52 52 51 52 52 54 55 54 56 55 55 57 57 56 56 56 56 55 56 58 58 56 50 51 53 55 52